Time,TemperatureF,DewpointF,PressureIn,WindDirection,WindDirectionDegrees,WindSpeedMPH,WindSpeedGustMPH,Humidity,HourlyPrecipIn,Conditions,Clouds,dailyrainin,SoftwareType,DateUTC
2013-01-14 00:04:00,44.0,44.0,29.59,SSW,192,1.0,-999.0,99,-99.99,,,-99.99,,2013-01-14 05:04:00,
2013-01-14 00:12:00,44.0,44.0,29.59,SSW,192,1.0,-999.0,99,-99.99,,,-99.99,,2013-01-14 05:12:00,
2013-01-14 00:22:00,44.0,44.0,29.58,SSW,192,0.0,-999.0,99,-99.99,,,-99.99,,2013-01-14 05:22:00,
2013-01-14 00:33:00,44.0,44.0,29.59,SSW,192,1.0,-999.0,99,-99.99,,,-99.99,,2013-01-14 05:33:00,
2013-01-14 00:42:00,44.0,44.0,29.59,SSW,192,1.0,-999.0,99,-99.99,,,-99.99,,2013-01-14 05:42:00,
2013-01-14 00:53:00,44.0,44.0,29.58,SSE,167,1.0,-999.0,99,-99.99,,,-99.99,,2013-01-14 05:53:00,
2013-01-14 01:03:00,43.0,43.0,29.58,SSE,157,0.0,-999.0,99,-99.99,,,-99.99,,2013-01-14 06:03:00,
2013-01-14 01:12:00,43.0,43.0,29.58,SSE,157,0.0,-999.0,99,-99.99,,,-99.99,,2013-01-14 06:12:00,
2013-01-14 01:22:00,44.0,44.0,29.59,SE,136,1.0,-999.0,99,-99.99,,,-99.99,,2013-01-14 06:22:00,
2013-01-14 01:33:00,43.0,43.0,29.58,SSE,149,0.0,-999.0,99,-99.99,,,-99.99,,2013-01-14 06:33:00,
2013-01-14 01:43:00,43.0,43.0,29.58,SSE,149,0.0,-999.0,99,-99.99,,,-99.99,,2013-01-14 06:43:00,
2013-01-14 01:53:00,43.0,43.0,29.58,South,187,0.0,-999.0,99,-99.99,,,-99.99,,2013-01-14 06:53:00,
2013-01-14 02:02:00,43.0,43.0,29.60,South,171,1.0,-999.0,99,-99.99,,,-99.99,,2013-01-14 07:02:00,
2013-01-14 02:12:00,43.0,43.0,29.60,South,171,1.0,-999.0,99,-99.99,,,-99.99,,2013-01-14 07:12:00,
2013-01-14 02:23:00,43.0,43.0,29.59,ESE,108,0.0,-999.0,99,-99.99,,,-99.99,,2013-01-14 07:23:00,
2013-01-14 02:33:00,44.0,44.0,29.59,SSW,200,1.0,-999.0,99,-99.99,,,-99.99,,2013-01-14 07:33:00,
2013-01-14 02:42:00,44.0,44.0,29.59,SSW,200,1.0,-999.0,99,-99.99,,,-99.99,,2013-01-14 07:42:00,
2013-01-14 02:53:00,44.0,44.0,29.59,SSW,196,1.0,-999.0,99,-99.99,,,-99.99,,2013-01-14 07:53:00,
2013-01-14 03:02:00,44.0,44.0,29.59,South,169,0.0,-999.0,99,-99.99,,,-99.99,,2013-01-14 08:02:00,
2013-01-14 03:12:00,44.0,44.0,29.59,South,169,0.0,-999.0,99,-99.99,,,-99.99,,2013-01-14 08:12:00,
2013-01-14 03:22:00,44.0,44.0,29.59,South,169,0.0,-999.0,99,-99.99,,,-99.99,,2013-01-14 08:22:00,
2013-01-14 03:33:00,44.0,44.0,29.59,SSW,211,1.0,-999.0,99,-99.99,,,-99.99,,2013-01-14 08:33:00,
2013-01-14 03:42:00,44.0,44.0,29.59,SSW,211,1.0,-999.0,99,-99.99,,,-99.99,,2013-01-14 08:42:00,
2013-01-14 03:53:00,44.0,44.0,29.59,South,170,0.0,-999.0,99,-99.99,,,-99.99,,2013-01-14 08:53:00,
2013-01-14 04:03:00,43.0,43.0,29.59,South,170,0.0,-999.0,99,-99.99,,,-99.99,,2013-01-14 09:03:00,
2013-01-14 04:12:00,43.0,43.0,29.59,South,170,0.0,-999.0,99,-99.99,,,-99.99,,2013-01-14 09:12:00,
2013-01-14 04:23:00,44.0,44.0,29.59,SE,145,0.0,-999.0,99,-99.99,,,-99.99,,2013-01-14 09:23:00,
2013-01-14 04:33:00,44.0,44.0,29.57,SE,132,0.0,-999.0,99,-99.99,,,-99.99,,2013-01-14 09:33:00,
2013-01-14 04:43:00,44.0,44.0,29.57,SE,132,0.0,-999.0,99,-99.99,,,-99.99,,2013-01-14 09:43:00,
2013-01-14 04:53:00,44.0,44.0,29.57,SSE,165,0.0,-999.0,99,-99.99,,,-99.99,,2013-01-14 09:53:00,
2013-01-14 05:02:00,44.0,44.0,29.55,SSE,154,1.0,-999.0,99,-99.99,,,-99.99,,2013-01-14 10:02:00,
2013-01-14 05:12:00,44.0,44.0,29.55,SSE,154,1.0,-999.0,99,-99.99,,,-99.99,,2013-01-14 10:12:00,
2013-01-14 05:23:00,44.0,44.0,29.55,ENE,61,2.0,-999.0,99,-99.99,,,-99.99,,2013-01-14 10:23:00,
2013-01-14 05:32:00,44.0,44.0,29.45,SE,128,6.0,-999.0,99,-99.99,,,-99.99,,2013-01-14 10:32:00,
2013-01-14 05:42:00,44.0,44.0,29.45,SE,128,6.0,-999.0,99,-99.99,,,-99.99,,2013-01-14 10:42:00,
2013-01-14 05:53:00,44.0,44.0,29.45,SE,128,6.0,-999.0,99,-99.99,,,-99.99,,2013-01-14 10:53:00,
2013-01-14 06:02:00,45.0,45.0,29.51,NNW,342,2.0,-999.0,99,-99.99,,,-99.99,,2013-01-14 11:02:00,
2013-01-14 06:12:00,45.0,45.0,29.51,NNW,342,2.0,-999.0,99,-99.99,,,-99.99,,2013-01-14 11:12:00,
2013-01-14 06:22:00,44.0,44.0,29.55,SSW,205,2.0,-999.0,99,-99.99,,,-99.99,,2013-01-14 11:22:00,
2013-01-14 06:33:00,44.0,44.0,29.55,SE,146,2.0,-999.0,99,-99.99,,,-99.99,,2013-01-14 11:33:00,
2013-01-14 06:43:00,44.0,44.0,29.55,SE,146,2.0,-999.0,99,-99.99,,,-99.99,,2013-01-14 11:43:00,
2013-01-14 06:53:00,44.0,44.0,29.55,SE,146,2.0,-999.0,99,-99.99,,,-99.99,,2013-01-14 11:53:00,
2013-01-14 07:03:00,43.0,43.0,29.56,SE,146,1.0,-999.0,99,-99.99,,,-99.99,,2013-01-14 12:03:00,
2013-01-14 07:12:00,43.0,43.0,29.56,SE,146,1.0,-999.0,99,-99.99,,,-99.99,,2013-01-14 12:12:00,
2013-01-14 07:23:00,44.0,44.0,29.57,ESE,115,1.0,-999.0,99,-99.99,,,-99.99,,2013-01-14 12:23:00,
2013-01-14 07:33:00,45.0,45.0,29.57,South,186,1.0,-999.0,99,-99.99,,,-99.99,,2013-01-14 12:33:00,
2013-01-14 07:43:00,45.0,45.0,29.57,South,186,1.0,-999.0,99,-99.99,,,-99.99,,2013-01-14 12:43:00,
2013-01-14 07:53:00,45.0,45.0,29.57,SSE,149,1.0,-999.0,99,-99.99,,,-99.99,,2013-01-14 12:53:00,
2013-01-14 08:03:00,45.0,45.0,29.59,South,186,2.0,-999.0,99,-99.99,,,-99.99,,2013-01-14 13:03:00,
2013-01-14 08:13:00,45.0,45.0,29.59,South,186,2.0,-999.0,99,-99.99,,,-99.99,,2013-01-14 13:13:00,
2013-01-14 08:23:00,45.0,45.0,29.61,SSW,202,1.0,-999.0,99,-99.99,,,-99.99,,2013-01-14 13:23:00,
2013-01-14 08:33:00,45.0,45.0,29.61,SSW,202,1.0,-999.0,99,-99.99,,,-99.99,,2013-01-14 13:33:00,
2013-01-14 08:43:00,45.0,45.0,29.61,SSW,202,1.0,-999.0,99,-99.99,,,-99.99,,2013-01-14 13:43:00,
2013-01-14 08:53:00,46.0,46.0,29.61,SSW,193,2.0,-999.0,99,-99.99,,,-99.99,,2013-01-14 13:53:00,
2013-01-14 09:03:00,46.0,46.0,29.62,SW,227,1.0,-999.0,99,-99.99,,,-99.99,,2013-01-14 14:03:00,
2013-01-14 09:13:00,46.0,46.0,29.62,SW,227,1.0,-999.0,99,-99.99,,,-99.99,,2013-01-14 14:13:00,
2013-01-14 09:23:00,46.0,46.0,29.64,SW,233,1.0,-999.0,99,-99.99,,,-99.99,,2013-01-14 14:23:00,
2013-01-14 09:33:00,47.0,47.0,29.64,SSW,205,0.0,-999.0,99,-99.99,,,-99.99,,2013-01-14 14:33:00,
2013-01-14 09:43:00,47.0,47.0,29.64,SSW,205,0.0,-999.0,99,-99.99,,,-99.99,,2013-01-14 14:43:00,
2013-01-14 09:53:00,47.0,47.0,29.65,SSW,211,1.0,-999.0,99,-99.99,,,-99.99,,2013-01-14 14:53:00,
2013-01-14 10:03:00,46.0,46.0,29.66,NW,321,1.0,-999.0,99,-99.99,,,-99.99,,2013-01-14 15:03:00,
2013-01-14 10:12:00,46.0,46.0,29.66,NW,321,1.0,-999.0,99,-99.99,,,-99.99,,2013-01-14 15:12:00,
2013-01-14 10:23:00,46.0,46.0,29.65,ESE,106,0.0,-999.0,99,-99.99,,,-99.99,,2013-01-14 15:23:00,
2013-01-14 10:33:00,46.0,46.0,29.65,ESE,111,1.0,-999.0,99,-99.99,,,-99.99,,2013-01-14 15:33:00,
2013-01-14 10:43:00,46.0,46.0,29.65,ESE,111,1.0,-999.0,99,-99.99,,,-99.99,,2013-01-14 15:43:00,
2013-01-14 10:53:00,47.0,47.0,29.66,ESE,111,0.0,-999.0,99,-99.99,,,-99.99,,2013-01-14 15:53:00,
2013-01-14 11:03:00,48.0,48.0,29.66,ESE,111,0.0,-999.0,99,-99.99,,,-99.99,,2013-01-14 16:03:00,
2013-01-14 11:12:00,48.0,48.0,29.66,ESE,111,0.0,-999.0,99,-99.99,,,-99.99,,2013-01-14 16:12:00,
2013-01-14 11:23:00,48.0,48.0,29.66,ESE,111,0.0,-999.0,99,-99.99,,,-99.99,,2013-01-14 16:23:00,
2013-01-14 11:33:00,48.0,48.0,29.67,NW,321,2.0,-999.0,99,-99.99,,,-99.99,,2013-01-14 16:33:00,
2013-01-14 11:43:00,48.0,48.0,29.67,NW,321,2.0,-999.0,99,-99.99,,,-99.99,,2013-01-14 16:43:00,
2013-01-14 11:53:00,48.0,48.0,29.68,NW,321,1.0,-999.0,99,-99.99,,,-99.99,,2013-01-14 16:53:00,
2013-01-14 12:03:00,47.0,47.0,29.68,NW,321,0.0,-999.0,99,-99.99,,,-99.99,,2013-01-14 17:03:00,
2013-01-14 12:12:00,47.0,47.0,29.68,NW,321,0.0,-999.0,99,-99.99,,,-99.99,,2013-01-14 17:12:00,
2013-01-14 12:23:00,47.0,47.0,29.69,NW,321,1.0,-999.0,99,-99.99,,,-99.99,,2013-01-14 17:23:00,
2013-01-14 12:33:00,48.0,48.0,29.68,WNW,301,1.0,-999.0,99,-99.99,,,-99.99,,2013-01-14 17:33:00,
2013-01-14 12:43:00,48.0,48.0,29.68,WNW,301,1.0,-999.0,99,-99.99,,,-99.99,,2013-01-14 17:43:00,
2013-01-14 12:54:00,48.0,48.0,29.69,NNW,336,2.0,-999.0,99,-99.99,,,-99.99,,2013-01-14 17:54:00,
2013-01-14 13:03:00,47.0,46.0,29.70,North,355,2.0,-999.0,96,-99.99,,,-99.99,,2013-01-14 18:03:00,
2013-01-14 13:13:00,47.0,46.0,29.70,North,355,2.0,-999.0,96,-99.99,,,-99.99,,2013-01-14 18:13:00,
2013-01-14 13:23:00,46.0,44.0,29.70,North,355,2.0,-999.0,91,-99.99,,,-99.99,,2013-01-14 18:23:00,
2013-01-14 13:33:00,47.0,44.0,29.70,NNW,338,2.0,-999.0,89,-99.99,,,-99.99,,2013-01-14 18:33:00,
2013-01-14 13:43:00,47.0,44.0,29.70,NNW,338,2.0,-999.0,89,-99.99,,,-99.99,,2013-01-14 18:43:00,
2013-01-14 13:53:00,48.0,44.0,29.71,North,355,2.0,-999.0,85,-99.99,,,-99.99,,2013-01-14 18:53:00,
2013-01-14 14:03:00,48.0,43.0,29.72,North,5,2.0,-999.0,82,-99.99,,,-99.99,,2013-01-14 19:03:00,
2013-01-14 14:13:00,48.0,43.0,29.72,North,5,2.0,-999.0,82,-99.99,,,-99.99,,2013-01-14 19:13:00,
2013-01-14 14:22:00,48.0,43.0,29.72,North,5,2.0,-999.0,82,-99.99,,,-99.99,,2013-01-14 19:22:00,
2013-01-14 14:33:00,49.0,41.0,29.71,NNW,335,3.0,-999.0,75,-99.99,,,-99.99,,2013-01-14 19:33:00,
2013-01-14 14:43:00,49.0,41.0,29.71,NNW,335,3.0,-999.0,75,-99.99,,,-99.99,,2013-01-14 19:43:00,
2013-01-14 14:53:00,48.0,40.0,29.73,WNW,289,3.0,-999.0,73,-99.99,,,-99.99,,2013-01-14 19:53:00,
2013-01-14 15:03:00,47.0,39.0,29.75,NNW,331,3.0,-999.0,73,-99.99,,,-99.99,,2013-01-14 20:03:00,
2013-01-14 15:13:00,47.0,39.0,29.75,NNW,331,3.0,-999.0,73,-99.99,,,-99.99,,2013-01-14 20:13:00,
2013-01-14 15:23:00,46.0,38.0,29.75,North,355,3.0,-999.0,73,-99.99,,,-99.99,,2013-01-14 20:23:00,
2013-01-14 15:33:00,46.0,38.0,29.75,NE,37,2.0,-999.0,73,-99.99,,,-99.99,,2013-01-14 20:33:00,
2013-01-14 15:43:00,46.0,38.0,29.75,NE,37,2.0,-999.0,73,-99.99,,,-99.99,,2013-01-14 20:43:00,
2013-01-14 15:53:00,45.0,37.0,29.75,NNW,338,3.0,-999.0,72,-99.99,,,-99.99,,2013-01-14 20:53:00,
2013-01-14 16:03:00,44.0,36.0,29.75,NW,314,2.0,-999.0,73,-99.99,,,-99.99,,2013-01-14 21:03:00,
2013-01-14 16:13:00,44.0,36.0,29.75,NW,314,2.0,-999.0,73,-99.99,,,-99.99,,2013-01-14 21:13:00,
2013-01-14 16:23:00,44.0,35.0,29.77,NNW,337,2.0,-999.0,71,-99.99,,,-99.99,,2013-01-14 21:23:00,
2013-01-14 16:33:00,43.0,34.0,29.77,North,355,2.0,-999.0,71,-99.99,,,-99.99,,2013-01-14 21:33:00,
2013-01-14 16:43:00,43.0,34.0,29.77,North,355,2.0,-999.0,71,-99.99,,,-99.99,,2013-01-14 21:43:00,
2013-01-14 16:53:00,42.0,33.0,29.76,NW,306,2.0,-999.0,70,-99.99,,,-99.99,,2013-01-14 21:53:00,
2013-01-14 17:03:00,42.0,33.0,29.77,NNE,26,2.0,-999.0,69,-99.99,,,-99.99,,2013-01-14 22:03:00,
2013-01-14 17:12:00,42.0,33.0,29.77,NNE,26,2.0,-999.0,69,-99.99,,,-99.99,,2013-01-14 22:12:00,
2013-01-14 17:23:00,41.0,32.0,29.78,North,10,2.0,-999.0,70,-99.99,,,-99.99,,2013-01-14 22:23:00,
2013-01-14 17:33:00,40.0,31.0,29.77,NNE,13,3.0,-999.0,71,-99.99,,,-99.99,,2013-01-14 22:33:00,
2013-01-14 17:43:00,40.0,31.0,29.77,NNE,13,3.0,-999.0,71,-99.99,,,-99.99,,2013-01-14 22:43:00,
2013-01-14 17:53:00,40.0,31.0,29.79,North,349,2.0,-999.0,70,-99.99,,,-99.99,,2013-01-14 22:53:00,
2013-01-14 18:03:00,39.0,30.0,29.78,NW,319,2.0,-999.0,70,-99.99,,,-99.99,,2013-01-14 23:03:00,
2013-01-14 18:12:00,39.0,30.0,29.78,NW,319,2.0,-999.0,70,-99.99,,,-99.99,,2013-01-14 23:12:00,
2013-01-14 18:23:00,39.0,30.0,29.78,North,360,2.0,-999.0,71,-99.99,,,-99.99,,2013-01-14 23:23:00,
2013-01-14 18:33:00,38.0,29.0,29.80,WNW,300,2.0,-999.0,71,-99.99,,,-99.99,,2013-01-14 23:33:00,
2013-01-14 18:43:00,38.0,29.0,29.80,WNW,300,2.0,-999.0,71,-99.99,,,-99.99,,2013-01-14 23:43:00,
2013-01-14 18:53:00,38.0,29.0,29.80,WNW,300,2.0,-999.0,71,-99.99,,,-99.99,,2013-01-14 23:53:00,
2013-01-14 19:03:00,37.0,28.0,29.83,NNW,332,3.0,-999.0,71,-99.99,,,-99.99,,2013-01-15 00:03:00,
2013-01-14 19:12:00,37.0,28.0,29.83,NNW,332,3.0,-999.0,71,-99.99,,,-99.99,,2013-01-15 00:12:00,
2013-01-14 19:23:00,37.0,28.0,29.82,NNW,339,3.0,-999.0,70,-99.99,,,-99.99,,2013-01-15 00:23:00,
2013-01-14 19:33:00,37.0,28.0,29.85,ENE,58,3.0,-999.0,70,-99.99,,,-99.99,,2013-01-15 00:33:00,
2013-01-14 19:43:00,37.0,28.0,29.85,ENE,58,3.0,-999.0,70,-99.99,,,-99.99,,2013-01-15 00:43:00,
2013-01-14 19:53:00,36.0,27.0,29.86,NW,325,3.0,-999.0,70,-99.99,,,-99.99,,2013-01-15 00:53:00,
2013-01-14 20:02:00,36.0,27.0,29.86,North,355,3.0,-999.0,70,-99.99,,,-99.99,,2013-01-15 01:02:00,
2013-01-14 20:12:00,36.0,27.0,29.86,NW,307,3.0,-999.0,70,-99.99,,,-99.99,,2013-01-15 01:12:00,
2013-01-14 20:22:00,36.0,27.0,29.86,NW,307,3.0,-999.0,70,-99.99,,,-99.99,,2013-01-15 01:22:00,
2013-01-14 20:32:00,36.0,27.0,29.87,East,96,2.0,-999.0,70,-99.99,,,-99.99,,2013-01-15 01:32:00,
2013-01-14 20:43:00,36.0,27.0,29.87,East,96,2.0,-999.0,70,-99.99,,,-99.99,,2013-01-15 01:43:00,
2013-01-14 20:52:00,35.0,26.0,29.86,NNW,332,2.0,-999.0,70,-99.99,,,-99.99,,2013-01-15 01:52:00,
2013-01-14 21:02:00,35.0,26.0,29.87,NNW,340,1.0,-999.0,70,-99.99,,,-99.99,,2013-01-15 02:02:00,
2013-01-14 21:12:00,35.0,26.0,29.87,NNW,340,1.0,-999.0,70,-99.99,,,-99.99,,2013-01-15 02:12:00,
2013-01-14 21:23:00,35.0,26.0,29.86,NE,40,2.0,-999.0,70,-99.99,,,-99.99,,2013-01-15 02:23:00,
2013-01-14 21:32:00,35.0,26.0,29.86,NNW,335,1.0,-999.0,70,-99.99,,,-99.99,,2013-01-15 02:32:00,
2013-01-14 21:42:00,35.0,26.0,29.86,NNW,335,1.0,-999.0,70,-99.99,,,-99.99,,2013-01-15 02:42:00,
2013-01-14 21:53:00,35.0,26.0,29.87,East,94,2.0,-999.0,70,-99.99,,,-99.99,,2013-01-15 02:53:00,
2013-01-14 22:03:00,35.0,26.0,29.88,NNW,332,1.0,-999.0,70,-99.99,,,-99.99,,2013-01-15 03:03:00,
2013-01-14 22:12:00,35.0,26.0,29.88,NNW,332,1.0,-999.0,70,-99.99,,,-99.99,,2013-01-15 03:12:00,
2013-01-14 22:22:00,35.0,27.0,29.91,NW,314,1.0,-999.0,71,-99.99,,,-99.99,,2013-01-15 03:22:00,
2013-01-14 22:33:00,35.0,27.0,29.89,North,350,1.0,-999.0,71,-99.99,,,-99.99,,2013-01-15 03:33:00,
2013-01-14 22:42:00,35.0,27.0,29.89,North,350,1.0,-999.0,71,-99.99,,,-99.99,,2013-01-15 03:42:00,
2013-01-14 22:53:00,35.0,27.0,29.89,NNE,31,1.0,-999.0,71,-99.99,,,-99.99,,2013-01-15 03:53:00,
2013-01-14 23:02:00,34.0,26.0,29.89,NNW,344,1.0,-999.0,72,-99.99,,,-99.99,,2013-01-15 04:02:00,
2013-01-14 23:12:00,34.0,26.0,29.89,NNW,344,1.0,-999.0,72,-99.99,,,-99.99,,2013-01-15 04:12:00,
2013-01-14 23:22:00,34.0,26.0,29.89,NNW,344,1.0,-999.0,72,-99.99,,,-99.99,,2013-01-15 04:22:00,
2013-01-14 23:32:00,34.0,26.0,29.89,North,351,1.0,-999.0,71,-99.99,,,-99.99,,2013-01-15 04:32:00,
2013-01-14 23:42:00,34.0,26.0,29.89,North,351,1.0,-999.0,71,-99.99,,,-99.99,,2013-01-15 04:42:00,
2013-01-14 23:52:00,34.0,26.0,29.89,North,351,1.0,-999.0,71,-99.99,,,-99.99,,2013-01-15 04:52:00,